Home   Weather   Faro   Past weeks

Flag for Portugal Past Weather in Faro, Portugal — Yesterday and Last 2 Weeks

Now
61 °F

Passing clouds.


Feels Like: 61 °F
Forecast: 56 / 71 °F
Wind: 7 mph from East

Location: Faro / Aeroporto

Current Time: Apr 24, 2017 at 8:37:44 am

Latest Report: Apr 24, 2017 at 8:00 am


Visibility: N/A

Pressure: 29.95 "Hg

Humidity: 88%

Dew Point: 57 °F

Location of FaroLocation

Past Weather in Faro — Graph

°F

Faro Temperature Yesterday

Maximum temperature yesterday: 70 °F (at 2:00 pm)
Minimum temperature yesterday: 57 °F (at 3:30 am)
Average temperature yesterday: 64 °F

High & Low Weather Summary for the Past Weeks

 TemperatureHumidityPressure
High82 °F (Apr 18, 2:30 pm)100% (Apr 17, 1:00 am)30.18 "Hg (Apr 17, 1:00 am)
Low54 °F (Apr 12, 7:30 am)28% (Apr 12, 1:00 pm)29.77 "Hg (Apr 18, 4:00 pm)
Average65 °F71%30.02 "Hg
* Reported Apr 9 7:00 am — Apr 24 7:30 am, Faro, Weather by CustomWeather, © 2017

Note: Actual official high and low records may vary slightly from our data, if they occured in-between our weather recording intervals... More about our weather records

Advertising

Faro Weather History for the Previous 24 Hours

Scroll right to see more
 ConditionsComfort  
Time TempWeatherWind HumidityBarometerVisibility
7:30 am
Mon, Apr 24
59 °FScattered clouds.6 mph94%29.95 "HgN/A
7:00 am59 °FPassing clouds.6 mph94%29.95 "HgN/A
6:30 am59 °FPassing clouds.6 mph94%29.95 "HgN/A
6:00 am61 °FPassing clouds.7 mph88%29.95 "HgN/A
5:30 am61 °FPassing clouds.6 mph88%29.95 "HgN/A
4:30 am61 °FClear.3 mph88%29.95 "Hg10 mi
3:30 am61 °FClear.5 mph88%29.98 "Hg10 mi
3:00 am61 °FClear.6 mph88%29.98 "Hg10 mi
2:30 am63 °FClear.7 mph88%29.98 "Hg10 mi
2:00 am63 °FClear.7 mph88%29.98 "Hg10 mi
1:30 am61 °FClear.7 mph88%30.01 "Hg10 mi
1:00 am61 °FPassing clouds.5 mph88%30.01 "HgN/A
12:30 am63 °FClear.6 mph88%30.01 "Hg10 mi
12:00 am63 °FClear.3 mph88%30.01 "Hg10 mi
11:30 pm
Sun, Apr 23
61 °FClear.3 mph88%29.98 "Hg10 mi
11:00 pm61 °FClear.3 mph88%29.98 "Hg10 mi
10:30 pm61 °FClear.5 mph88%29.98 "Hg10 mi
9:30 pm63 °FClear.7 mph83%29.98 "Hg10 mi
9:00 pm64 °FClear.7 mph78%29.98 "Hg10 mi
8:30 pm63 °FClear.3 mph83%29.95 "Hg10 mi
8:00 pm64 °FPassing clouds.3 mph83%29.95 "HgN/A
7:30 pm66 °FSunny.6 mph78%29.95 "Hg10 mi
7:00 pm66 °FPassing clouds.8 mph78%29.95 "HgN/A
6:30 pm68 °FSunny.9 mph69%29.95 "Hg10 mi
6:00 pm68 °FSunny.9 mph73%29.95 "Hg10 mi
5:30 pm70 °FSunny.9 mph64%29.98 "Hg10 mi
5:00 pm70 °FPassing clouds.9 mph64%29.98 "HgN/A
4:30 pm70 °FPassing clouds.10 mph60%29.98 "HgN/A
4:00 pm70 °FPassing clouds.10 mph60%29.98 "HgN/A
3:30 pm68 °FPassing clouds.10 mph64%29.98 "HgN/A
3:00 pm70 °FPassing clouds.9 mph64%30.01 "HgN/A
2:00 pm70 °FPassing clouds.12 mph64%30.01 "HgN/A
1:30 pm68 °FPassing clouds.12 mph64%30.01 "HgN/A
1:00 pm68 °FPassing clouds.12 mph64%30.01 "HgN/A
12:30 pm68 °FPassing clouds.12 mph64%30.04 "HgN/A
12:00 pm68 °FPassing clouds.9 mph60%30.04 "HgN/A
11:30 am68 °FPassing clouds.10 mph69%30.04 "HgN/A
11:00 am68 °FPassing clouds.10 mph64%30.04 "HgN/A
10:30 am68 °FPassing clouds.8 mph64%30.01 "HgN/A
10:00 am66 °FPassing clouds.7 mph68%30.01 "HgN/A
9:30 am66 °FPassing clouds.3 mph73%30.01 "HgN/A
9:00 am66 °FPassing clouds.3 mph73%30.01 "HgN/A
8:30 am63 °FPassing clouds.5 mph77%30.01 "HgN/A
8:00 am61 °FSunny.8 mph83%30.01 "Hg10 mi
Weather by CustomWeather, © 2017

See weather overviewHow to use our weather pages